Weather History for Sterling, IL

Change the Weather History Date:

Tuesday, February 19, 2013

  Actual Average Record
Temperature  
Mean Temperature 12 °F -  
Max Temperature 17 °F 35 °F 48 °F (2002)
Min Temperature 8 °F 21 °F 1 °F (2008)
Degree Days  
Heating Degree Days 52    
Moisture  
Dew Point 4 °F    
Average Humidity 68    
Maximum Humidity 73    
Minimum Humidity 62    
Precipitation  
Precipitation 0.00 in - - ()
Sea Level Pressure  
Sea Level Pressure 29.96 in    
Wind  
Wind Speed 25 mph (WNW)    
Max Wind Speed 34 mph    
Max Gust Speed 43 mph    
Visibility 9 miles    
Events      
Averages and records for this station are not official NWS values.
T = Trace of Precipitation, MM = Missing Value Source: NWS Daily Summary

Daily Weather History Graph

Daily Weather History Graph

Search for Another Location

Airport:

Trip Planner

Search our weather history database for the weather conditions in past years. The results will help you decide how hot, cold, wet, or windy it might be!

Date:

Astronomy

Feb. 19, 2013 Rise Set
Actual Time 6:48 AM CST 5:37 PM CST
Civil Twilight 6:19 AM CST 6:05 PM CST
Nautical Twilight 5:47 AM CST 6:38 PM CST
Astronomical Twilight 5:15 AM CST 7:10 PM CST
Moon 12:06 PM CST (2/19) 2:22 AM CST (2/19)
Length of Visible Light 11h 45m
Length of Day
10h 49m
Waxing Gibbous, 67% of the Moon is Illuminated
Feb 19
Waxing Gibbous
Feb 25
Full
Mar 4
Last Quarter
Mar 11
New
Mar 19
First Quarter

Hourly Weather History & Observations

Time (CST) Temp. Windchill Dew Point Humidity Pressure Visibility Wind Dir Wind Speed Gust Speed Precip Events Conditions
12:15 AM - - - N/A% 29.69 in 10.0 mi WNW 27.6 mph 35.7 mph N/A   Overcast
12:35 AM - - - N/A% 29.70 in 10.0 mi WNW 27.6 mph 38.0 mph N/A   Overcast
12:55 AM - - - N/A% 29.71 in 8.0 mi WNW 34.5 mph 40.3 mph N/A   Overcast
1:15 AM - - - N/A% 29.72 in 10.0 mi West 26.5 mph 39.1 mph N/A   Overcast
1:35 AM - - - N/A% 29.73 in 10.0 mi West 27.6 mph 36.8 mph N/A   Overcast
1:55 AM - - - N/A% 29.74 in 10.0 mi WNW 29.9 mph 38.0 mph N/A   Overcast
2:15 AM 17.6 °F -0.3 °F 10.4 °F 73% 29.75 in 10.0 mi West 24.2 mph 28.8 mph N/A   Overcast
2:35 AM - - - N/A% 29.75 in 10.0 mi West 25.3 mph 34.5 mph N/A   Overcast
2:55 AM - - - N/A% 29.75 in 10.0 mi WNW 25.3 mph 34.5 mph N/A   Overcast
3:15 AM - - - N/A% 29.75 in 8.0 mi West 28.8 mph 36.8 mph N/A   Overcast
3:35 AM - - - N/A% 29.76 in 4.0 mi West 32.2 mph 42.6 mph N/A   Overcast
3:55 AM 15.8 °F -3.1 °F 8.6 °F 73% 29.77 in 6.0 mi West 25.3 mph 34.5 mph N/A   Overcast
4:15 AM - - - N/A% 29.78 in 3.0 mi West 29.9 mph 34.5 mph N/A   Overcast
4:35 AM - - - N/A% 29.79 in 5.0 mi West 31.1 mph 38.0 mph N/A   Overcast
4:55 AM - - - N/A% 29.80 in 7.0 mi WNW 27.6 mph 35.7 mph N/A   Overcast
5:15 AM 12.2 °F -6.3 °F 3.2 °F 67% 29.81 in 10.0 mi WNW 20.7 mph 32.2 mph N/A   Overcast
5:55 AM 12.2 °F -7.5 °F 3.2 °F 67% 29.83 in 10.0 mi West 24.2 mph 38.0 mph N/A   Overcast
6:35 AM - - - N/A% 29.84 in 10.0 mi WNW 24.2 mph 35.7 mph N/A   Mostly Cloudy
6:55 AM - - - N/A% 29.85 in 10.0 mi WNW 28.8 mph 39.1 mph N/A   Scattered Clouds
7:15 AM 10.4 °F -9.5 °F 1.4 °F 67% 29.87 in 10.0 mi WNW 23.0 mph 38.0 mph N/A   Scattered Clouds
7:35 AM 10.4 °F -9.1 °F 3.2 °F 73% 29.88 in 7.0 mi WNW 21.9 mph 29.9 mph N/A   Mostly Cloudy
7:55 AM 10.4 °F -7.7 °F 3.2 °F 73% 29.89 in 10.0 mi WNW 18.4 mph 31.1 mph N/A   Overcast
8:15 AM 10.4 °F -8.6 °F 1.4 °F 67% 29.90 in 10.0 mi West 20.7 mph 34.5 mph N/A   Overcast
8:35 AM - - - N/A% 29.90 in 10.0 mi WNW 27.6 mph 35.7 mph N/A   Overcast
8:55 AM 10.4 °F -10.3 °F 1.4 °F 67% 29.92 in 10.0 mi West 25.3 mph 34.5 mph N/A   Overcast
9:35 AM - - - N/A% 29.93 in 10.0 mi West 29.9 mph 38.0 mph N/A   Overcast
9:55 AM - - - N/A% 29.94 in 7.0 mi West 27.6 mph 33.4 mph N/A   Overcast
10:15 AM - - - N/A% 29.95 in 6.0 mi West 27.6 mph 34.5 mph N/A   Overcast
10:35 AM - - - N/A% 29.96 in 6.0 mi WNW 21.9 mph 35.7 mph N/A   Overcast
10:55 AM 12.2 °F -7.9 °F 5.0 °F 73% 29.97 in 7.0 mi WNW 25.3 mph 33.4 mph N/A   Overcast
11:15 AM - - - N/A% 29.97 in 5.0 mi West 23.0 mph 32.2 mph N/A   Overcast
11:35 AM - - - N/A% 29.98 in 7.0 mi WNW 27.6 mph 35.7 mph N/A   Overcast
12:15 PM - - - N/A% 29.98 in 10.0 mi WNW 28.8 mph 36.8 mph N/A   Overcast
12:55 PM 14.0 °F -5.5 °F 3.2 °F 62% 29.99 in 6.0 mi WNW 25.3 mph 32.2 mph N/A   Overcast
1:15 PM 14.0 °F -4.7 °F 5.0 °F 67% 30.00 in 8.0 mi WNW 23.0 mph 33.4 mph N/A   Overcast
1:35 PM 15.8 °F -2.3 °F 8.6 °F 73% 30.00 in 10.0 mi WNW 23.0 mph 34.5 mph N/A   Overcast
1:55 PM - - - N/A% 30.00 in 10.0 mi WNW 24.2 mph 34.5 mph N/A   Overcast
2:15 PM - - - N/A% 30.01 in 9.0 mi West 28.8 mph 35.7 mph N/A   Overcast
2:35 PM - - - N/A% 30.01 in 10.0 mi WNW 23.0 mph 31.1 mph N/A   Overcast
2:55 PM 17.6 °F -1.3 °F 8.6 °F 68% 30.03 in 10.0 mi WNW 27.6 mph 33.4 mph N/A   Overcast
3:15 PM - - - N/A% 30.02 in 7.0 mi WNW 24.2 mph 31.1 mph N/A   Mostly Cloudy
3:35 PM 17.6 °F -0.6 °F 8.6 °F 68% 30.04 in 8.0 mi WNW 25.3 mph 31.1 mph N/A   Mostly Cloudy
3:55 PM 17.6 °F 0.9 °F 8.6 °F 68% 30.04 in 5.0 mi WNW 20.7 mph 29.9 mph N/A   Mostly Cloudy
4:15 PM 17.6 °F 0.9 °F 8.6 °F 68% 30.05 in 8.0 mi WNW 20.7 mph 28.8 mph N/A   Mostly Cloudy
4:35 PM 17.6 °F -0.3 °F 8.6 °F 68% 30.06 in 8.0 mi WNW 24.2 mph 32.2 mph N/A   Mostly Cloudy
4:55 PM 17.6 °F 0.5 °F 6.8 °F 63% 30.07 in 10.0 mi WNW 21.9 mph 29.9 mph N/A   Scattered Clouds
5:15 PM 17.6 °F 1.3 °F 8.6 °F 68% 30.08 in 10.0 mi WNW 19.6 mph 27.6 mph N/A   Mostly Cloudy
6:35 PM 14.0 °F -0.8 °F 5.0 °F 67% 30.12 in 10.0 mi WNW 13.8 mph 18.4 mph N/A   Clear
7:15 PM 14.0 °F -3.0 °F 5.0 °F 67% 30.13 in 10.0 mi WNW 18.4 mph 25.3 mph N/A   Clear
7:35 PM 14.0 °F -3.0 °F 5.0 °F 67% 30.14 in 10.0 mi WNW 18.4 mph 25.3 mph N/A   Clear
7:55 PM 12.2 °F -4.8 °F 5.0 °F 73% 30.15 in 10.0 mi NW 17.3 mph 23.0 mph N/A   Clear
8:15 PM 12.2 °F -4.3 °F 3.2 °F 67% 30.16 in 10.0 mi WNW 16.1 mph 26.5 mph N/A   Clear
8:35 PM 12.2 °F -1.0 °F 3.2 °F 67% 30.17 in 10.0 mi NW 10.4 mph 19.6 mph N/A   Partly Cloudy
9:15 PM 10.4 °F -5.4 °F 3.2 °F 73% 30.19 in 10.0 mi NW 13.8 mph 20.7 mph N/A   Clear
9:35 PM 10.4 °F -3.3 °F 1.4 °F 67% 30.20 in 10.0 mi NW 10.4 mph - N/A   Clear
9:55 PM 10.4 °F -5.4 °F 1.4 °F 67% 30.20 in 10.0 mi NNW 13.8 mph 20.7 mph N/A   Clear
10:15 PM 10.4 °F -5.4 °F 1.4 °F 67% 30.21 in 10.0 mi NW 13.8 mph 21.9 mph N/A   Clear
10:35 PM 10.4 °F -4.8 °F -0.4 °F 62% 30.22 in 10.0 mi NW 12.7 mph 17.3 mph N/A   Clear
10:55 PM 8.6 °F -7.0 °F 1.4 °F 73% 30.23 in 10.0 mi NW 12.7 mph 18.4 mph N/A   Clear
11:16 PM 8.6 °F -4.7 °F -0.4 °F 67% 30.24 in 10.0 mi NW 9.2 mph - N/A   Clear
11:35 PM 8.6 °F -6.3 °F -0.4 °F 67% 30.25 in 10.0 mi NW 11.5 mph 18.4 mph N/A   Clear